Theta_e
322 322 322 322 321 325 326 327 330 330 329 329 323 332 333 331 334 337 337 338 336 339 337 335 339 343 333 333 337 332 341 340 343 342 340 339 338 337 336 336 336 335 332 331
322 322 323 323 324 325 326 327 328 325 325 329 333 334 333 334 334 335 335 338 337 337 339 340 333 334 332 329 328 329 330 331 340 341 341 342 341 339 338 338 337 335 333 331
323 324 324 325 325 326 324 325 325 324 324 324 331 333 333 333 332 332 340 335 338 337 340 337 336 327 328 328 330 330 326 330 335 340 340 340 341 339 335 329 329 329 329 328
321 322 324 324 328 325 329 328 329 329 328 326 328 334 332 332 330 331 328 343 343 339 337 331 336 331 330 329 331 329 329 328 324 331 341 339 337 336 327 327 326 324 323 321
323 325 326 326 328 327 329 329 329 329 326 329 330 333 330 330 329 331 329 329 334 338 336 336 335 335 336 332 331 328 330 328 326 336 338 335 337 333 330 328 326 323 322 321
323 324 325 325 328 329 330 329 326 327 328 332 331 334 333 327 326 326 326 334 336 337 335 335 337 336 334 332 331 335 338 328 329 338 336 335 335 330 327 324 322 321 320 320
329 327 327 326 325 329 327 327 328 331 334 334 330 331 329 328 328 326 329 333 332 330 331 332 332 331 331 331 330 334 333 335 337 337 335 334 329 325 323 322 321 320 319 318
332 330 330 331 329 331 331 328 330 334 337 331 329 333 329 328 326 328 329 332 330 329 328 329 331 331 329 327 327 328 333 331 335 332 329 327 324 322 322 320 319 317 315 314
332 334 332 332 331 329 333 332 329 329 330 331 330 329 328 328 328 328 328 328 328 329 330 329 329 328 328 326 325 325 324 324 324 323 323 323 321 319 318 316 315 312 311 311
332 333 333 334 331 330 330 332 331 331 330 333 332 331 328 331 330 329 328 328 328 327 327 327 327 326 326 326 325 324 323 323 323 322 319 317 316 315 312 311 311 310 309 309
330 331 335 333 334 333 331 332 332 328 325 327 331 330 329 329 330 330 328 327 326 325 325 325 327 325 324 326 324 323 323 321 319 318 316 315 312 310 310 311 310 309 308 309
335 331 336 335 333 333 331 333 328 330 331 331 329 333 328 328 329 326 328 327 330 326 323 323 327 324 325 324 323 322 320 318 317 316 313 311 310 310 310 309 308 309 309 309
331 331 334 333 332 331 334 334 332 329 329 334 334 334 330 331 331 330 329 330 327 324 321 320 322 323 324 324 323 321 320 318 316 314 312 311 310 310 310 310 309 308 309 310
328 327 330 335 331 333 334 335 334 331 333 338 338 334 332 332 331 329 330 326 324 322 320 319 319 321 323 324 323 321 318 316 314 312 312 311 310 310 309 309 309 310 310 310
332 329 334 331 333 335 336 337 336 333 334 335 331 336 332 330 330 330 329 324 323 321 318 318 320 321 323 324 323 319 317 315 313 312 311 311 310 310 310 310 311 311 311 311
330 332 334 334 334 332 334 331 330 331 331 331 334 334 330 328 327 328 326 324 323 321 319 319 323 323 323 322 318 317 316 314 312 312 311 310 310 310 310 310 311 311 311 311
336 331 331 334 334 334 335 336 333 333 332 329 331 330 329 329 329 328 325 324 322 320 317 320 322 323 321 319 318 317 315 313 312 311 310 310 310 310 310 310 311 311 311 310
332 332 331 333 331 334 335 336 335 336 335 333 332 332 330 328 327 325 324 321 320 318 316 320 323 323 321 319 318 316 315 313 312 311 310 310 310 311 310 311 311 311 311 311
326 331 332 335 334 335 335 335 334 334 336 333 333 332 330 329 328 330 324 320 317 317 319 323 324 322 319 318 317 316 314 313 312 311 310 309 310 310 311 311 311 312 312 311
330 329 331 331 335 338 334 334 334 331 338 333 332 332 331 328 328 326 323 320 318 319 324 324 322 320 319 317 317 316 314 312 311 310 310 310 310 310 311 311 310 311 311 311
334 332 330 333 336 334 333 333 332 335 328 332 331 328 327 328 325 323 320 319 318 319 324 323 322 320 318 317 317 316 314 312 311 310 309 311 310 311 311 311 310 311 311 312
333 334 332 331 332 332 331 332 333 329 330 331 330 327 326 324 322 321 319 317 319 319 323 323 321 319 318 317 316 315 314 313 312 311 311 310 310 310 309 311 310 311 311 310
338 332 333 330 329 325 327 326 331 325 330 329 327 325 322 322 322 320 318 317 317 320 321 323 320 318 317 317 316 316 314 314 313 312 311 311 308 310 308 310 307 308 310 309
328 328 326 323 327 328 327 331 328 330 329 326 323 322 322 321 320 318 316 315 315 320 320 322 321 318 317 317 316 314 313 313 312 310 309 309 309 311 309 306 305 305 306 308
323 324 325 325 327 328 329 330 330 330 328 325 323 322 321 320 318 316 314 315 319 321 321 321 320 317 317 316 315 314 312 312 312 310 310 310 310 311 310 310 309 307 306 306
323 322 325 325 322 324 327 329 328 327 326 323 322 322 321 319 316 317 316 319 321 321 320 321 319 317 316 316 316 314 312 312 311 310 310 310 310 310 310 311 310 311 310 309
Wind_Speed
5 6 6 13 7 5 3 6 3 3 5 4 4 10 7 7 9 12 12 11 10 13 12 11 20 17 21 18 25 18 6 4 12 10 8 8 12 11 12 13 14 15 14 16
7 6 15 7 8 5 6 5 2 4 5 9 12 8 6 7 4 3 8 7 7 9 4 12 18 25 32 23 13 22 6 2 9 14 10 9 7 7 7 10 12 13 13 16
4 13 8 6 3 10 4 6 4 1 4 5 6 7 8 7 6 4 5 9 1 12 8 6 8 15 20 13 4 6 14 6 6 8 13 11 8 6 1 6 5 4 4 10
6 13 7 7 5 4 4 3 2 4 4 3 4 2 7 7 10 9 7 7 7 6 7 7 4 7 8 4 8 5 8 9 5 9 16 12 7 4 4 4 5 6 8 6
8 4 6 7 1 3 1 6 8 5 7 7 10 6 7 4 10 9 9 9 3 10 10 7 6 11 8 10 10 7 8 13 16 10 17 13 3 1 1 5 7 6 8 10
7 3 4 5 11 6 3 8 9 6 3 5 5 5 6 4 6 6 8 12 12 13 10 11 10 4 9 11 11 14 15 16 18 13 13 9 8 4 7 8 9 10 12 14
8 6 6 5 9 12 11 8 4 6 5 3 4 6 6 4 8 6 8 10 10 8 7 6 7 8 8 8 11 11 17 20 13 11 13 9 6 9 7 8 9 12 12 9
3 6 10 10 5 6 6 6 5 1 1 2 5 2 3 1 8 16 13 12 11 10 9 9 4 8 6 6 9 11 10 11 4 8 11 12 9 8 10 10 10 12 11 11
4 4 1 14 7 4 5 6 6 5 3 4 3 5 4 17 17 20 19 21 13 9 7 4 7 6 13 17 20 20 21 20 19 16 16 15 15 14 13 12 13 14 15 14
5 4 5 3 5 8 5 2 3 4 2 3 3 1 2 10 10 10 13 12 9 6 7 6 5 14 16 17 20 22 19 20 19 19 18 17 18 18 18 18 18 18 18 17
4 4 6 7 3 3 5 5 5 3 4 4 3 3 3 7 5 7 5 5 5 4 6 5 12 16 16 19 21 22 20 21 20 18 18 19 20 21 21 20 20 21 20 18
3 5 3 7 1 4 2 2 4 4 5 1 4 1 5 4 5 6 5 6 7 7 5 7 10 14 19 19 18 21 21 20 18 17 18 19 20 20 21 23 24 20 20 20
2 2 3 8 7 1 5 1 3 1 4 4 3 2 3 6 3 5 5 6 5 6 7 7 10 16 14 14 15 18 17 16 14 15 17 17 18 20 20 22 23 21 20 20
7 4 7 6 7 4 0 4 1 5 3 2 6 5 6 5 3 1 4 6 8 6 3 5 8 11 12 10 12 13 13 14 17 18 17 18 19 19 22 20 20 20 19 20
5 3 4 4 4 3 6 4 6 5 6 5 6 8 8 8 7 4 3 5 7 6 6 5 4 9 12 9 10 12 14 16 17 17 17 18 18 18 20 22 21 20 19 18
4 0 2 6 7 6 1 4 9 5 6 8 8 3 4 5 4 2 3 4 6 6 5 4 6 10 11 13 13 13 15 15 16 18 18 19 19 19 19 19 22 20 19 19
2 3 3 3 2 2 6 6 6 5 4 8 6 6 7 5 5 3 5 6 6 4 4 5 5 9 11 11 12 13 13 15 17 18 19 18 18 20 20 19 20 19 19 18
4 4 3 2 5 2 5 3 7 13 5 7 10 12 11 7 4 6 5 7 6 4 5 6 8 11 11 12 13 13 14 16 18 17 19 17 17 16 17 17 19 18 17 17
2 4 3 3 2 2 3 4 2 3 1 3 9 7 7 5 4 2 3 4 6 5 8 11 11 13 14 13 12 13 16 16 17 14 15 16 14 17 17 17 16 16 15 15
7 7 5 2 3 5 6 3 2 4 1 2 7 9 9 6 3 3 3 6 7 9 12 14 14 14 15 12 12 13 14 15 13 12 12 14 14 17 16 15 15 14 13 10
3 4 4 2 2 5 6 5 4 3 6 2 6 8 8 5 4 5 6 5 8 10 13 13 13 13 11 11 9 10 11 10 8 10 11 12 12 16 15 12 14 14 13 11
5 5 2 3 2 4 5 2 5 6 1 7 4 4 7 8 7 7 6 6 8 8 10 12 12 9 9 10 9 10 9 6 8 10 9 11 11 12 12 10 11 12 15 16
1 5 5 7 6 6 6 7 4 7 10 6 7 6 8 9 7 6 5 7 8 6 8 11 10 8 8 8 8 9 7 7 8 10 9 9 11 12 12 11 13 10 12 15
4 4 3 4 2 5 5 3 5 6 6 7 8 9 11 10 7 7 5 6 8 8 8 7 9 8 10 9 9 9 7 6 7 9 11 9 11 11 9 12 12 12 12 12
5 3 4 2 3 5 3 5 7 6 7 9 11 14 13 11 7 8 5 6 7 7 6 7 11 10 10 9 7 7 7 7 8 8 11 10 10 10 8 7 9 10 11 9
1 2 4 5 5 6 4 7 7 8 9 12 10 6 10 17 10 13 8 6 7 5 5 7 10 11 12 8 4 6 5 5 7 9 12 11 9 9 7 9 9 7 7 7
Wind_Direction
349 31 283 273 258 243 254 145 94 261 258 15 324 51 13 353 83 124 156 182 172 205 213 74 72 132 102 135 156 170 187 161 303 295 238 220 234 236 263 270 273 271 247 244
1 287 265 242 280 113 94 118 222 282 271 88 77 31 345 31 75 206 158 185 211 204 41 79 83 114 122 134 162 176 244 324 288 282 274 284 269 249 266 271 273 266 257 248
197 253 328 273 16 85 41 61 8 282 348 97 101 36 10 328 346 94 89 180 178 209 82 82 111 143 135 115 39 292 223 262 347 289 276 282 274 279 222 57 72 38 281 271
244 277 224 64 81 114 46 255 38 334 18 70 19 24 355 330 329 351 31 136 188 104 84 90 138 144 168 205 296 270 217 253 33 222 279 273 284 305 62 51 15 39 35 19
271 307 76 68 297 102 318 46 24 5 76 87 356 71 280 336 348 341 337 348 140 121 124 130 192 203 211 237 270 260 241 228 250 293 269 272 311 195 15 15 62 45 16 13
244 260 93 141 51 46 24 40 33 40 65 51 312 112 305 7 315 32 36 63 88 116 129 161 184 218 251 261 277 286 276 267 261 283 287 306 311 66 58 39 13 16 13 360
345 349 341 32 71 18 58 50 2 18 19 186 283 59 238 337 2 33 85 62 59 82 104 149 174 195 238 270 287 281 251 276 293 285 307 320 56 66 44 26 19 0 356 1
53 14 359 326 64 162 62 104 127 92 141 246 350 121 322 223 29 69 71 77 66 52 34 341 303 254 263 312 357 11 39 21 56 49 63 62 56 55 54 33 18 23 23 354
133 61 148 61 17 60 321 41 176 122 55 68 318 328 305 52 58 62 71 76 81 87 89 260 294 330 68 80 83 78 75 77 81 80 80 78 69 57 51 40 23 8 0 4
197 97 37 347 12 32 77 65 40 24 76 96 317 332 276 69 90 80 83 92 97 83 91 66 68 82 88 81 76 71 71 78 77 78 73 68 59 45 30 22 23 16 9 7
105 85 340 42 1 228 356 11 32 112 116 144 173 315 14 138 167 109 140 123 109 59 34 63 65 68 81 81 74 65 71 80 73 67 59 48 38 34 29 26 18 13 13 10
65 112 78 210 291 360 43 66 85 112 296 73 133 295 346 248 154 132 126 111 63 35 46 82 76 69 81 78 79 79 86 80 80 69 58 50 44 35 35 30 23 20 19 22
141 46 68 346 353 28 79 279 152 102 43 119 63 273 282 290 34 354 83 33 45 75 53 51 61 55 87 95 85 84 93 96 82 62 55 52 42 39 34 25 22 24 24 21
78 119 145 175 205 141 325 303 214 112 102 262 171 166 238 302 86 208 46 65 77 82 90 67 52 55 81 103 96 90 93 88 70 59 59 53 42 39 33 27 24 22 20 22
94 102 119 214 118 154 189 227 227 146 153 143 177 165 204 218 213 180 314 74 81 74 54 65 65 57 61 88 91 88 86 74 58 58 61 49 36 38 34 26 21 18 20 22
11 141 87 22 181 180 355 354 100 89 132 77 141 183 190 225 246 144 43 95 75 72 50 66 73 67 61 92 94 86 90 73 64 66 53 37 33 31 30 24 20 25 30 29
76 102 66 298 24 86 25 337 92 85 57 156 187 189 162 210 212 165 111 104 110 104 68 106 85 70 87 92 95 97 85 71 62 55 41 40 32 37 29 20 22 26 29 31
118 90 97 213 26 52 232 339 107 106 79 94 107 161 176 175 174 145 158 126 115 102 79 118 90 74 75 78 76 86 65 58 54 43 33 31 30 27 23 18 21 27 28 28
209 107 66 110 123 332 357 12 29 123 39 250 150 139 164 149 87 38 115 126 140 121 119 123 98 93 79 69 78 74 62 55 47 32 28 30 25 24 25 20 20 25 28 36
59 67 108 87 126 193 232 251 236 84 339 239 141 161 162 143 114 247 146 126 104 101 129 120 109 103 89 78 65 59 57 51 42 18 26 26 27 17 17 22 23 33 40 40
47 31 116 97 145 283 248 262 338 111 230 186 154 141 157 144 170 158 144 107 112 102 132 127 123 113 109 84 62 81 63 54 22 22 28 25 27 29 30 31 33 40 48 50
159 131 133 97 93 301 199 148 169 204 220 120 127 149 106 109 115 124 115 96 90 94 123 135 132 123 103 64 73 93 60 39 15 9 4 14 18 27 25 43 36 49 52 57
12 173 176 172 209 227 197 176 145 146 138 156 137 127 123 118 118 120 118 84 66 109 101 158 142 122 94 82 80 83 53 32 17 0 6 9 21 32 33 39 39 45 49 53
326 150 112 91 291 196 160 81 134 135 146 140 133 133 127 131 138 120 109 71 55 108 85 127 161 124 108 108 91 69 61 43 18 31 24 21 27 35 36 44 42 42 47 50
221 65 111 31 22 65 73 145 150 153 132 130 140 145 140 132 138 132 110 77 91 110 102 108 140 137 130 123 92 61 61 44 43 26 24 22 24 28 26 16 18 25 36 38
349 196 139 209 220 145 213 173 163 147 159 154 133 113 133 131 133 121 115 97 122 114 121 130 150 142 136 126 116 83 64 38 32 24 25 27 27 27 20 3 359 359 8 19